Tracking 31027 objects as of 19-Jul-2025
HD Live streaming from Space Station
objects crossing your sky now

STARLINK-11273

Track STARLINK-11273 now!
10-day predictions
STARLINK-11273 is classified as:


NORAD ID: 60913
Int'l Code: 2024-154L
Perigee: 366.1 km
Apogee: 367.6 km
Inclination: 53.2 °
Period: 91.7 minutes
Semi major axis: 6737 km
RCS: Unknown
Launch date: August 31, 2024
Source: United States (US)
Launch site: AIR FORCE EASTERN TEST RANGE (AFETR)
Your satellite tracking list
Your tracking list is empty




NASA's NSSDC Master Catalog

Two Line Element Set (TLE):
1 60913U 24154L   25199.31055928  .00000613  00000-0  99207-5 0  9996
2 60913  53.1597 206.5858 0001111  86.0926 274.0219 15.69707216 51690
Source of the keplerian elements: AFSPC